Total_Precipitation_Accumulation
0.00 0.00 0.00 0.00 0.00 0.00 0.00 0.00 0.00 0.00 0.00 0.00 0.00 0.00 0.02 0.10 0.19 0.35 0.36 0.43 0.68 0.92 1.67 1.76 2.13 1.11 1.22 1.96 2.47 1.35 1.39 1.16 0.54 0.33 0.08 0.01 0.00 0.01 0.05 0.04 0.04 0.03 0.03
0.00 0.00 0.00 0.00 0.00 0.00 0.00 0.00 0.00 0.00 0.00 0.00 0.00 0.00 0.00 0.01 0.09 0.30 0.57 0.57 0.81 0.95 1.54 1.72 1.92 1.22 1.15 1.60 3.47 2.14 1.23 1.50 0.76 0.21 0.03 0.00 0.00 0.00 0.03 0.04 0.03 0.03 0.03
0.00 0.00 0.00 0.00 0.00 0.00 0.00 0.00 0.00 0.00 0.00 0.00 0.00 0.00 0.00 0.00 0.01 0.19 0.50 0.76 0.78 1.02 1.24 1.77 1.86 1.41 1.41 1.47 2.84 2.79 1.49 1.92 1.05 0.22 0.02 0.00 0.00 0.00 0.01 0.02 0.02 0.02 0.03
0.00 0.00 0.00 0.00 0.00 0.00 0.00 0.00 0.01 0.01 0.00 0.00 0.00 0.00 0.00 0.00 0.01 0.06 0.40 0.62 0.84 0.87 1.22 1.48 1.76 2.14 1.47 1.65 2.54 2.69 2.53 1.13 1.34 0.31 0.04 0.00 0.00 0.00 0.01 0.02 0.02 0.02 0.04
0.00 0.00 0.00 0.00 0.00 0.01 0.01 0.01 0.02 0.01 0.00 0.01 0.00 0.00 0.00 0.00 0.00 0.03 0.32 0.42 0.84 0.98 1.27 1.24 1.56 2.71 2.03 2.03 2.35 2.70 3.58 1.34 0.73 0.30 0.04 0.00 0.00 0.00 0.01 0.02 0.02 0.03 0.03
0.00 0.00 0.00 0.00 0.01 0.02 0.01 0.03 0.03 0.01 0.01 0.01 0.01 0.00 0.00 0.00 0.00 0.01 0.22 0.36 0.64 1.02 1.06 1.02 1.11 2.89 2.52 2.69 2.09 2.29 3.14 2.24 0.37 0.17 0.06 0.00 0.00 0.00 0.01 0.01 0.02 0.03 0.03
0.00 0.00 0.00 0.00 0.02 0.03 0.04 0.05 0.03 0.02 0.02 0.02 0.03 0.01 0.00 0.00 0.01 0.00 0.10 0.41 0.59 1.25 0.92 1.16 0.82 2.18 2.49 2.71 2.75 1.93 2.82 2.44 0.88 0.09 0.03 0.00 0.00 0.00 0.01 0.01 0.02 0.03 0.03
0.00 0.00 0.01 0.01 0.02 0.04 0.05 0.06 0.03 0.05 0.02 0.04 0.19 0.09 0.02 0.02 0.03 0.01 0.07 0.37 0.45 1.47 1.30 1.44 0.93 1.53 2.11 2.38 2.67 2.36 2.32 2.65 1.30 0.13 0.03 0.00 0.00 0.00 0.01 0.01 0.02 0.03 0.02
0.00 0.00 0.00 0.01 0.02 0.05 0.08 0.04 0.04 0.09 0.13 0.05 0.13 0.56 0.50 0.16 0.07 0.02 0.07 0.20 0.34 0.94 1.13 2.47 1.68 1.09 1.88 2.23 2.19 2.87 2.82 2.47 1.37 0.22 0.03 0.00 0.00 0.00 0.01 0.01 0.02 0.03 0.03
0.00 0.00 0.00 0.01 0.02 0.05 0.07 0.04 0.04 0.08 0.17 0.14 0.09 0.23 0.48 0.59 0.51 0.20 0.06 0.19 0.39 0.60 0.78 1.79 3.11 1.50 1.54 2.42 1.98 2.49 3.03 2.31 1.26 0.24 0.03 0.00 0.00 0.00 0.01 0.01 0.02 0.02 0.03
0.00 0.00 0.00 0.01 0.02 0.04 0.04 0.03 0.05 0.09 0.14 0.20 0.20 0.30 0.24 0.19 0.43 0.46 0.16 0.16 0.39 0.58 0.90 0.91 2.48 2.31 1.89 2.48 2.12 2.14 2.80 2.17 1.06 0.12 0.02 0.00 0.00 0.00 0.01 0.01 0.02 0.02 0.02
0.00 0.00 0.00 0.01 0.02 0.03 0.03 0.04 0.07 0.10 0.12 0.13 0.14 0.23 0.44 0.56 0.53 0.49 0.24 0.14 0.23 0.42 0.93 1.16 1.59 2.00 2.40 3.12 2.83 2.13 2.41 2.11 0.95 0.08 0.01 0.00 0.00 0.00 0.01 0.01 0.02 0.02 0.02
0.00 0.00 0.00 0.01 0.02 0.03 0.03 0.04 0.09 0.10 0.11 0.15 0.21 0.27 0.35 0.57 0.59 0.48 0.41 0.24 0.21 0.33 0.55 1.08 1.84 1.54 2.49 3.09 3.14 2.34 2.28 1.84 0.68 0.06 0.00 0.00 0.00 0.00 0.00 0.01 0.01 0.02 0.02
0.00 0.00 0.00 0.01 0.02 0.02 0.02 0.05 0.09 0.09 0.10 0.14 0.22 0.34 0.43 0.43 0.47 0.52 0.58 0.40 0.16 0.29 0.66 0.93 1.61 1.83 2.10 3.21 3.01 2.20 2.11 1.61 0.34 0.03 0.01 0.00 0.00 0.00 0.00 0.00 0.01 0.01 0.02
0.00 0.00 0.00 0.01 0.02 0.02 0.02 0.05 0.11 0.10 0.14 0.20 0.31 0.36 0.42 0.40 0.50 0.51 0.48 0.45 0.25 0.20 0.61 0.84 1.11 1.77 2.14 2.94 3.87 2.28 1.85 1.42 0.31 0.05 0.01 0.00 0.00 0.00 0.00 0.00 0.00 0.00 0.01
0.00 0.00 0.00 0.01 0.01 0.02 0.03 0.06 0.11 0.13 0.21 0.24 0.35 0.38 0.39 0.51 0.54 0.47 0.36 0.31 0.32 0.20 0.30 0.69 0.81 1.03 1.56 2.33 2.86 3.25 2.17 1.17 0.47 0.13 0.01 0.00 0.00 0.00 0.00 0.00 0.00 0.00 0.00
0.00 0.00 0.00 0.01 0.01 0.02 0.04 0.07 0.15 0.19 0.23 0.27 0.34 0.47 0.51 0.52 0.50 0.42 0.24 0.23 0.32 0.23 0.23 0.50 0.64 0.74 1.06 1.76 1.97 2.80 2.88 1.12 0.54 0.27 0.05 0.00 0.00 0.00 0.00 0.00 0.00 0.00 0.00
0.00 0.00 0.00 0.00 0.01 0.02 0.04 0.11 0.21 0.24 0.26 0.35 0.42 0.43 0.53 0.50 0.39 0.31 0.22 0.19 0.27 0.29 0.27 0.47 0.63 0.92 0.99 1.41 1.86 2.11 2.82 1.54 0.51 0.32 0.19 0.06 0.00 0.00 0.00 0.00 0.00 0.00 0.00
0.00 0.00 0.00 0.00 0.01 0.02 0.04 0.13 0.26 0.29 0.28 0.40 0.46 0.48 0.55 0.46 0.41 0.33 0.22 0.20 0.26 0.34 0.38 0.45 0.57 0.75 1.05 1.04 1.65 1.96 2.27 1.52 0.59 0.39 0.27 0.21 0.11 0.01 0.00 0.00 0.00 0.00 0.00
0.00 0.00 0.00 0.00 0.01 0.01 0.06 0.15 0.18 0.21 0.28 0.44 0.46 0.44 0.52 0.51 0.46 0.36 0.27 0.26 0.29 0.37 0.42 0.37 0.38 0.52 0.93 1.03 1.39 1.90 2.09 1.68 0.77 0.41 0.38 0.28 0.24 0.19 0.05 0.00 0.00 0.00 0.00
0.00 0.00 0.00 0.00 0.00 0.01 0.12 0.21 0.22 0.27 0.31 0.33 0.33 0.33 0.43 0.45 0.43 0.47 0.36 0.31 0.26 0.22 0.36 0.26 0.29 0.45 0.69 1.06 1.28 1.53 1.81 1.50 1.25 0.49 0.34 0.32 0.22 0.19 0.17 0.10 0.02 0.00 0.00
0.00 0.00 0.00 0.00 0.00 0.01 0.08 0.16 0.20 0.25 0.30 0.35 0.38 0.32 0.33 0.42 0.36 0.32 0.38 0.39 0.35 0.29 0.22 0.24 0.26 0.35 0.52 0.95 1.15 1.25 1.25 1.21 1.64 1.09 0.40 0.37 0.22 0.10 0.04 0.04 0.03 0.00 0.00
0.00 0.00 0.00 0.00 0.00 0.01 0.06 0.09 0.11 0.16 0.22 0.24 0.25 0.19 0.20 0.34 0.32 0.26 0.27 0.21 0.31 0.36 0.32 0.23 0.23 0.31 0.47 1.00 1.00 1.01 0.93 1.09 1.32 0.97 0.66 0.42 0.41 0.18 0.04 0.04 0.03 0.01 0.00
0.00 0.00 0.00 0.00 0.00 0.02 0.03 0.04 0.06 0.09 0.11 0.08 0.11 0.14 0.17 0.28 0.41 0.26 0.17 0.21 0.22 0.27 0.34 0.30 0.26 0.34 0.60 1.02 0.97 0.94 0.86 0.86 1.11 0.81 0.56 0.57 0.47 0.40 0.16 0.09 0.14 0.07 0.04
0.00 0.00 0.00 0.00 0.00 0.00 0.00 0.00 0.00 0.01 0.02 0.04 0.06 0.10 0.14 0.30 0.38 0.29 0.18 0.23 0.21 0.28 0.33 0.39 0.37 0.50 0.80 1.26 1.09 0.83 0.69 0.66 0.79 0.96 0.81 0.70 0.58 0.46 0.33 0.24 0.29 0.38 0.32
0.00 0.00 0.00 0.00 0.00 0.00 0.00 0.00 0.00 0.00 0.00 0.01 0.02 0.06 0.18 0.27 0.28 0.23 0.18 0.19 0.23 0.37 0.30 0.27 0.31 0.43 0.58 1.04 1.20 0.91 0.76 0.67 0.77 0.74 0.93 0.70 0.75 0.69 0.70 0.61 0.35 0.31 0.30